QPF
0.00 0.00 0.01 0.01 0.00 0.00 0.00 0.00 0.00 0.00 0.00 0.00 0.00 0.00 0.00 0.00 0.00 0.00 0.00 0.00 0.00 0.00 0.00 0.00 0.00 0.00 0.00 0.00 0.00 0.00 0.00 0.00 0.00 0.00 0.00 0.00 0.01 0.02
0.00 0.01 0.01 0.01 0.01 0.01 0.01 0.00 0.01 0.00 0.00 0.00 0.00 0.00 0.00 0.00 0.00 0.00 0.00 0.01 0.01 0.01 0.01 0.01 0.00 0.00 0.00 0.00 0.00 0.00 0.00 0.00 0.00 0.00 0.00 0.00 0.00 0.01
0.01 0.01 0.01 0.01 0.01 0.02 0.02 0.01 0.01 0.01 0.00 0.00 0.00 0.00 0.00 0.00 0.00 0.00 0.00 0.01 0.01 0.01 0.01 0.01 0.02 0.01 0.01 0.00 0.00 0.00 0.00 0.00 0.00 0.00 0.00 0.00 0.00 0.00
0.01 0.01 0.01 0.01 0.02 0.03 0.02 0.02 0.01 0.01 0.01 0.00 0.00 0.00 0.00 0.00 0.01 0.01 0.01 0.01 0.01 0.01 0.02 0.02 0.02 0.02 0.02 0.01 0.01 0.01 0.00 0.00 0.00 0.00 0.00 0.00 0.00 0.00
0.03 0.04 0.03 0.02 0.03 0.03 0.03 0.02 0.01 0.01 0.01 0.01 0.00 0.01 0.01 0.01 0.01 0.01 0.01 0.01 0.01 0.01 0.02 0.02 0.01 0.02 0.02 0.02 0.02 0.01 0.01 0.01 0.00 0.00 0.00 0.00 0.00 0.00
0.05 0.05 0.05 0.04 0.04 0.04 0.03 0.03 0.03 0.02 0.03 0.02 0.01 0.01 0.01 0.01 0.02 0.02 0.02 0.02 0.02 0.02 0.04 0.04 0.03 0.02 0.01 0.01 0.01 0.01 0.01 0.01 0.01 0.01 0.01 0.00 0.00 0.00
0.05 0.05 0.05 0.05 0.04 0.04 0.04 0.04 0.03 0.03 0.03 0.02 0.01 0.01 0.01 0.01 0.02 0.02 0.02 0.02 0.02 0.02 0.03 0.03 0.03 0.02 0.02 0.03 0.02 0.02 0.02 0.02 0.01 0.01 0.01 0.01 0.01 0.00
0.04 0.04 0.04 0.04 0.04 0.05 0.05 0.04 0.03 0.02 0.02 0.01 0.01 0.01 0.01 0.01 0.01 0.01 0.01 0.01 0.01 0.01 0.02 0.02 0.02 0.02 0.02 0.03 0.03 0.03 0.03 0.03 0.02 0.02 0.02 0.02 0.01 0.01
0.03 0.03 0.02 0.02 0.02 0.02 0.02 0.03 0.02 0.02 0.01 0.01 0.01 0.01 0.01 0.00 0.01 0.01 0.01 0.01 0.01 0.01 0.01 0.01 0.01 0.02 0.01 0.02 0.02 0.02 0.02 0.03 0.03 0.02 0.02 0.02 0.02 0.01
0.02 0.02 0.02 0.01 0.00 0.00 0.00 0.01 0.01 0.01 0.01 0.01 0.01 0.01 0.01 0.01 0.01 0.01 0.01 0.01 0.01 0.00 0.01 0.01 0.01 0.01 0.01 0.01 0.02 0.02 0.01 0.01 0.01 0.01 0.01 0.01 0.01 0.01
0.01 0.01 0.01 0.01 0.00 0.00 0.00 0.00 0.00 0.00 0.01 0.01 0.01 0.01 0.01 0.01 0.01 0.01 0.01 0.01 0.00 0.00 0.00 0.00 0.00 0.00 0.00 0.00 0.01 0.01 0.01 0.01 0.01 0.01 0.01 0.01 0.01 0.01
0.02 0.02 0.02 0.01 0.01 0.00 0.00 0.00 0.00 0.00 0.00 0.00 0.00 0.00 0.00 0.00 0.00 0.00 0.01 0.01 0.01 0.00 0.00 0.00 0.00 0.00 0.00 0.00 0.00 0.00 0.00 0.00 0.00 0.00 0.00 0.00 0.00 0.01
0.03 0.02 0.01 0.01 0.00 0.00 0.00 0.00 0.00 0.00 0.00 0.00 0.00 0.00 0.00 0.00 0.00 0.00 0.00 0.01 0.01 0.01 0.01 0.01 0.01 0.01 0.01 0.00 0.00 0.00 0.00 0.00 0.00 0.00 0.00 0.00 0.00 0.00
0.00 0.00 0.00 0.00 0.00 0.00 0.00 0.00 0.00 0.00 0.00 0.00 0.00 0.00 0.00 0.00 0.00 0.00 0.00 0.00 0.01 0.01 0.01 0.01 0.01 0.01 0.01 0.00 0.00 0.00 0.00 0.00 0.00 0.00 0.00 0.00 0.00 0.00
0.01 0.01 0.01 0.01 0.00 0.00 0.00 0.00 0.00 0.00 0.00 0.00 0.00 0.00 0.00 0.00 0.00 0.00 0.00 0.00 0.00 0.00 0.00 0.00 0.01 0.01 0.01 0.01 0.01 0.00 0.00 0.00 0.00 0.00 0.00 0.00 0.00 0.00
0.02 0.01 0.01 0.01 0.00 0.00 0.00 0.00 0.00 0.00 0.00 0.00 0.00 0.00 0.00 0.00 0.00 0.00 0.00 0.00 0.00 0.00 0.00 0.00 0.01 0.01 0.01 0.00 0.00 0.00 0.00 0.00 0.00 0.00 0.00 0.00 0.00 0.00
0.00 0.00 0.00 0.00 0.00 0.00 0.00 0.00 0.00 0.00 0.00 0.00 0.00 0.00 0.00 0.00 0.00 0.00 0.00 0.00 0.00 0.00 0.00 0.00 0.00 0.00 0.00 0.00 0.00 0.00 0.01 0.00 0.01 0.01 0.00 0.00 0.00 0.00
0.00 0.00 0.00 0.00 0.00 0.00 0.00 0.00 0.00 0.00 0.00 0.00 0.00 0.00 0.00 0.00 0.00 0.01 0.01 0.01 0.01 0.01 0.01 0.01 0.00 0.00 0.00 0.00 0.01 0.01 0.01 0.01 0.01 0.01 0.01 0.01 0.00 0.00
0.00 0.00 0.00 0.00 0.00 0.00 0.00 0.00 0.00 0.00 0.00 0.00 0.00 0.00 0.00 0.00 0.00 0.01 0.01 0.01 0.01 0.01 0.01 0.01 0.01 0.01 0.01 0.01 0.00 0.01 0.02 0.02 0.01 0.01 0.01 0.01 0.01 0.00
0.00 0.00 0.00 0.00 0.00 0.00 0.00 0.00 0.00 0.00 0.00 0.00 0.00 0.00 0.00 0.00 0.00 0.00 0.00 0.00 0.00 0.00 0.01 0.01 0.02 0.02 0.02 0.02 0.01 0.01 0.01 0.02 0.02 0.02 0.02 0.02 0.02 0.01
0.00 0.00 0.00 0.00 0.00 0.00 0.00 0.00 0.00 0.00 0.00 0.00 0.00 0.00 0.00 0.00 0.00 0.00 0.00 0.00 0.01 0.01 0.01 0.01 0.02 0.02 0.02 0.02 0.02 0.01 0.01 0.01 0.02 0.03 0.03 0.03 0.02 0.02
0.00 0.00 0.00 0.00 0.00 0.00 0.00 0.00 0.00 0.00 0.00 0.00 0.00 0.00 0.00 0.00 0.00 0.00 0.00 0.01 0.01 0.01 0.01 0.01 0.01 0.01 0.02 0.02 0.02 0.01 0.00 0.00 0.01 0.02 0.02 0.03 0.03 0.02
0.00 0.00 0.00 0.00 0.00 0.00 0.00 0.00 0.00 0.00 0.00 0.00 0.00 0.00 0.00 0.00 0.00 0.00 0.00 0.01 0.01 0.01 0.01 0.01 0.00 0.00 0.00 0.00 0.00 0.01 0.01 0.01 0.01 0.01 0.01 0.01 0.02 0.02
MSLP
1017.97 1018.26 1018.54 1018.79 1018.99 1019.11 1019.15 1019.10 1018.97 1018.77 1018.54 1018.28 1018.03 1017.79 1017.58 1017.42 1017.30 1017.23 1017.23 1017.28 1017.38 1017.53 1017.70 1017.89 1018.07 1018.23 1018.35 1018.44 1018.48 1018.50 1018.51 1018.52 1018.54 1018.58 1018.63 1018.69 1018.75 1018.78
1017.83 1018.06 1018.29 1018.48 1018.63 1018.73 1018.76 1018.73 1018.65 1018.51 1018.35 1018.16 1017.95 1017.75 1017.54 1017.35 1017.18 1017.05 1016.95 1016.91 1016.93 1017.00 1017.12 1017.27 1017.44 1017.60 1017.75 1017.87 1017.96 1018.03 1018.08 1018.12 1018.16 1018.21 1018.26 1018.31 1018.34 1018.37
1017.70 1017.90 1018.08 1018.24 1018.36 1018.44 1018.48 1018.47 1018.43 1018.36 1018.26 1018.14 1017.98 1017.81 1017.61 1017.40 1017.18 1016.97 1016.79 1016.65 1016.56 1016.54 1016.58 1016.68 1016.81 1016.95 1017.10 1017.24 1017.36 1017.45 1017.52 1017.58 1017.64 1017.70 1017.75 1017.79 1017.83 1017.84
1017.64 1017.82 1017.99 1018.13 1018.25 1018.33 1018.38 1018.40 1018.39 1018.37 1018.32 1018.25 1018.14 1017.98 1017.79 1017.56 1017.29 1017.02 1016.75 1016.52 1016.34 1016.22 1016.17 1016.19 1016.26 1016.37 1016.48 1016.60 1016.71 1016.80 1016.88 1016.94 1016.99 1017.04 1017.09 1017.13 1017.17 1017.19
1017.68 1017.88 1018.06 1018.22 1018.34 1018.43 1018.49 1018.53 1018.55 1018.55 1018.53 1018.48 1018.39 1018.24 1018.04 1017.79 1017.49 1017.17 1016.84 1016.54 1016.27 1016.07 1015.94 1015.88 1015.87 1015.91 1015.97 1016.03 1016.10 1016.15 1016.19 1016.22 1016.25 1016.28 1016.31 1016.34 1016.38 1016.41
1017.85 1018.09 1018.31 1018.49 1018.64 1018.74 1018.82 1018.86 1018.88 1018.87 1018.85 1018.79 1018.68 1018.53 1018.32 1018.05 1017.74 1017.39 1017.03 1016.68 1016.37 1016.11 1015.91 1015.77 1015.68 1015.63 1015.60 1015.58 1015.57 1015.54 1015.51 1015.48 1015.46 1015.45 1015.45 1015.47 1015.51 1015.55
1018.18 1018.46 1018.72 1018.94 1019.10 1019.22 1019.28 1019.31 1019.30 1019.26 1019.19 1019.10 1018.97 1018.79 1018.57 1018.29 1017.98 1017.63 1017.27 1016.92 1016.59 1016.29 1016.05 1015.84 1015.68 1015.53 1015.41 1015.29 1015.16 1015.04 1014.92 1014.80 1014.71 1014.64 1014.60 1014.59 1014.61 1014.66
1018.63 1018.96 1019.25 1019.49 1019.66 1019.77 1019.81 1019.79 1019.73 1019.64 1019.51 1019.36 1019.18 1018.98 1018.74 1018.47 1018.17 1017.85 1017.53 1017.20 1016.88 1016.59 1016.31 1016.06 1015.83 1015.60 1015.38 1015.14 1014.91 1014.67 1014.44 1014.23 1014.05 1013.92 1013.82 1013.78 1013.78 1013.82
1019.20 1019.54 1019.84 1020.08 1020.25 1020.32 1020.32 1020.25 1020.12 1019.95 1019.76 1019.54 1019.32 1019.09 1018.84 1018.58 1018.32 1018.04 1017.76 1017.48 1017.20 1016.92 1016.65 1016.37 1016.08 1015.78 1015.46 1015.13 1014.78 1014.44 1014.11 1013.82 1013.56 1013.36 1013.21 1013.13 1013.09 1013.10
1019.82 1020.15 1020.44 1020.65 1020.79 1020.82 1020.77 1020.63 1020.44 1020.20 1019.94 1019.67 1019.40 1019.14 1018.90 1018.66 1018.43 1018.20 1017.97 1017.74 1017.50 1017.25 1016.97 1016.68 1016.35 1015.99 1015.61 1015.19 1014.77 1014.34 1013.94 1013.57 1013.26 1013.00 1012.81 1012.68 1012.61 1012.58
1020.45 1020.74 1020.99 1021.17 1021.26 1021.24 1021.14 1020.95 1020.70 1020.41 1020.09 1019.79 1019.49 1019.22 1018.98 1018.76 1018.55 1018.36 1018.17 1017.97 1017.76 1017.52 1017.25 1016.93 1016.58 1016.18 1015.75 1015.29 1014.82 1014.35 1013.90 1013.49 1013.14 1012.85 1012.62 1012.45 1012.34 1012.26
1021.06 1021.29 1021.49 1021.61 1021.65 1021.60 1021.45 1021.22 1020.94 1020.62 1020.29 1019.97 1019.66 1019.39 1019.14 1018.93 1018.73 1018.55 1018.37 1018.18 1017.96 1017.72 1017.43 1017.10 1016.73 1016.31 1015.85 1015.38 1014.89 1014.41 1013.96 1013.54 1013.18 1012.87 1012.61 1012.41 1012.25 1012.11
1021.60 1021.78 1021.92 1021.99 1022.00 1021.91 1021.75 1021.51 1021.23 1020.91 1020.58 1020.26 1019.96 1019.69 1019.44 1019.22 1019.01 1018.81 1018.60 1018.38 1018.13 1017.85 1017.53 1017.18 1016.78 1016.35 1015.90 1015.43 1014.96 1014.50 1014.07 1013.67 1013.32 1013.00 1012.73 1012.49 1012.28 1012.08
1022.07 1022.20 1022.29 1022.34 1022.31 1022.22 1022.06 1021.85 1021.58 1021.29 1021.00 1020.70 1020.41 1020.14 1019.89 1019.64 1019.39 1019.14 1018.88 1018.59 1018.28 1017.94 1017.57 1017.18 1016.76 1016.33 1015.89 1015.44 1015.01 1014.59 1014.19 1013.83 1013.49 1013.17 1012.88 1012.61 1012.34 1012.07
1022.48 1022.57 1022.64 1022.66 1022.64 1022.55 1022.42 1022.24 1022.02 1021.78 1021.52 1021.26 1020.99 1020.72 1020.44 1020.16 1019.85 1019.53 1019.19 1018.82 1018.43 1018.01 1017.58 1017.15 1016.71 1016.27 1015.85 1015.43 1015.04 1014.66 1014.30 1013.96 1013.62 1013.30 1012.98 1012.66 1012.32 1011.98
1022.83 1022.91 1022.97 1022.99 1022.97 1022.92 1022.82 1022.68 1022.51 1022.32 1022.11 1021.87 1021.62 1021.35 1021.05 1020.72 1020.36 1019.96 1019.53 1019.07 1018.59 1018.10 1017.61 1017.13 1016.67 1016.23 1015.81 1015.42 1015.05 1014.70 1014.36 1014.02 1013.68 1013.33 1012.96 1012.57 1012.17 1011.74
1023.17 1023.24 1023.30 1023.33 1023.33 1023.30 1023.23 1023.14 1023.01 1022.86 1022.69 1022.48 1022.25 1021.97 1021.64 1021.27 1020.85 1020.38 1019.86 1019.33 1018.77 1018.22 1017.67 1017.16 1016.67 1016.22 1015.81 1015.42 1015.06 1014.71 1014.35 1013.99 1013.61 1013.20 1012.77 1012.30 1011.82 1011.32
1023.51 1023.59 1023.65 1023.69 1023.70 1023.69 1023.64 1023.58 1023.48 1023.36 1023.21 1023.02 1022.79 1022.50 1022.15 1021.74 1021.27 1020.75 1020.18 1019.59 1018.98 1018.38 1017.80 1017.25 1016.74 1016.27 1015.85 1015.44 1015.06 1014.67 1014.28 1013.86 1013.41 1012.92 1012.40 1011.85 1011.29 1010.72
1023.89 1023.97 1024.03 1024.06 1024.08 1024.06 1024.03 1023.97 1023.88 1023.77 1023.63 1023.44 1023.21 1022.91 1022.55 1022.11 1021.62 1021.06 1020.46 1019.84 1019.20 1018.57 1017.97 1017.40 1016.87 1016.37 1015.91 1015.47 1015.04 1014.59 1014.13 1013.63 1013.09 1012.51 1011.90 1011.27 1010.63 1009.99
1024.30 1024.37 1024.42 1024.44 1024.44 1024.42 1024.37 1024.30 1024.21 1024.09 1023.94 1023.74 1023.50 1023.19 1022.82 1022.38 1021.87 1021.30 1020.70 1020.06 1019.41 1018.77 1018.15 1017.56 1017.01 1016.48 1015.98 1015.48 1014.98 1014.46 1013.91 1013.32 1012.68 1012.02 1011.33 1010.62 1009.92 1009.24
1024.73 1024.78 1024.81 1024.81 1024.78 1024.73 1024.66 1024.57 1024.46 1024.32 1024.16 1023.95 1023.69 1023.38 1022.99 1022.55 1022.04 1021.47 1020.86 1020.23 1019.58 1018.93 1018.31 1017.70 1017.12 1016.55 1015.99 1015.43 1014.86 1014.26 1013.62 1012.94 1012.23 1011.49 1010.74 1009.99 1009.26 1008.56
1025.16 1025.18 1025.18 1025.14 1025.09 1025.01 1024.91 1024.79 1024.66 1024.50 1024.31 1024.08 1023.81 1023.48 1023.09 1022.64 1022.13 1021.56 1020.95 1020.32 1019.67 1019.02 1018.38 1017.74 1017.13 1016.52 1015.91 1015.29 1014.66 1013.99 1013.29 1012.55 1011.79 1011.01 1010.23 1009.46 1008.73 1008.04
1025.54 1025.53 1025.49 1025.42 1025.34 1025.24 1025.11 1024.97 1024.81 1024.63 1024.42 1024.18 1023.88 1023.53 1023.13 1022.66 1022.14 1021.56 1020.95 1020.30 1019.64 1018.97 1018.31 1017.66 1017.01 1016.36 1015.71 1015.05 1014.37 1013.66 1012.93 1012.17 1011.40 1010.62 1009.84 1009.10 1008.39 1007.73
Thickness
5715 5714 5713 5713 5713 5712 5711 5708 5702 5696 5697 5705 5710 5715 5716 5715 5714 5712 5711 5709 5708 5706 5704 5702 5701 5699 5697 5696 5694 5693 5692 5691 5690 5689 5688 5687 5686 5685
5712 5711 5710 5709 5709 5709 5707 5706 5703 5698 5694 5699 5704 5708 5710 5710 5709 5708 5706 5705 5703 5701 5700 5698 5697 5695 5694 5692 5691 5689 5688 5687 5686 5685 5684 5683 5682 5682
5708 5707 5706 5706 5704 5703 5703 5701 5699 5696 5692 5694 5698 5702 5703 5702 5702 5700 5699 5697 5696 5695 5694 5693 5692 5691 5689 5688 5686 5685 5684 5682 5681 5680 5680 5679 5678 5678
5703 5702 5701 5701 5698 5697 5696 5695 5693 5692 5689 5687 5689 5691 5693 5693 5693 5691 5691 5690 5689 5688 5687 5686 5685 5684 5683 5681 5680 5679 5678 5677 5676 5675 5674 5673 5673 5672
5699 5697 5695 5694 5692 5691 5689 5687 5686 5686 5684 5681 5680 5681 5681 5682 5681 5681 5681 5679 5679 5679 5679 5678 5677 5675 5674 5673 5672 5671 5670 5669 5668 5667 5667 5667 5666 5666
5693 5691 5689 5687 5685 5684 5682 5680 5679 5677 5675 5672 5670 5669 5669 5669 5668 5666 5666 5666 5666 5667 5667 5666 5666 5665 5664 5664 5663 5662 5661 5661 5660 5660 5659 5659 5659 5659
5685 5683 5681 5680 5679 5677 5675 5671 5669 5666 5664 5661 5658 5656 5655 5654 5652 5652 5651 5652 5653 5653 5653 5653 5653 5652 5652 5652 5651 5651 5651 5650 5650 5650 5649 5650 5650 5650
5676 5673 5672 5670 5669 5667 5665 5662 5660 5656 5652 5649 5646 5643 5642 5641 5640 5639 5637 5636 5635 5639 5637 5638 5638 5637 5637 5637 5637 5636 5637 5637 5637 5638 5638 5638 5639 5639
5667 5663 5662 5659 5657 5655 5652 5650 5647 5645 5642 5638 5634 5631 5629 5628 5626 5624 5622 5619 5619 5621 5620 5621 5621 5620 5621 5620 5620 5620 5620 5620 5621 5622 5624 5624 5625 5626
5655 5652 5648 5645 5645 5642 5639 5636 5632 5630 5628 5625 5621 5618 5616 5614 5612 5609 5606 5604 5604 5603 5602 5600 5602 5602 5603 5603 5602 5602 5601 5602 5603 5605 5606 5608 5610 5612
5642 5639 5636 5633 5631 5629 5626 5621 5618 5615 5614 5611 5608 5605 5603 5600 5597 5593 5589 5586 5585 5584 5583 5580 5582 5583 5585 5585 5584 5583 5583 5583 5584 5585 5587 5589 5592 5595
5628 5625 5623 5620 5618 5615 5611 5607 5602 5598 5596 5595 5592 5589 5586 5583 5579 5575 5570 5566 5563 5563 5563 5560 5559 5559 5562 5566 5564 5563 5563 5563 5564 5566 5568 5571 5573 5576
5616 5612 5609 5606 5604 5601 5597 5592 5588 5584 5580 5576 5573 5570 5566 5563 5559 5555 5551 5547 5543 5541 5542 5539 5538 5536 5535 5540 5543 5543 5542 5543 5545 5547 5549 5551 5554 5557
5602 5599 5596 5593 5590 5586 5582 5577 5573 5569 5564 5558 5553 5548 5545 5541 5538 5534 5531 5527 5524 5522 5521 5519 5517 5515 5514 5516 5521 5523 5523 5523 5525 5528 5530 5533 5536 5539
5589 5587 5583 5579 5575 5570 5566 5561 5556 5551 5545 5538 5532 5527 5524 5521 5518 5515 5512 5509 5507 5504 5502 5500 5498 5497 5496 5496 5499 5502 5504 5506 5507 5509 5512 5515 5518 5521
5576 5573 5569 5564 5558 5553 5548 5542 5537 5532 5525 5518 5513 5509 5506 5502 5499 5496 5493 5490 5488 5486 5485 5483 5482 5481 5480 5481 5481 5484 5486 5487 5491 5492 5495 5499 5503 5506
5561 5556 5551 5545 5539 5533 5527 5522 5517 5512 5506 5500 5495 5491 5487 5484 5480 5478 5475 5472 5469 5468 5468 5468 5468 5468 5468 5468 5470 5472 5473 5474 5477 5479 5482 5487 5491 5494
5546 5537 5531 5525 5518 5513 5507 5502 5497 5492 5487 5482 5477 5473 5469 5466 5463 5461 5458 5455 5453 5453 5453 5454 5455 5456 5457 5459 5460 5460 5461 5463 5467 5469 5472 5476 5483 5487
5528 5519 5513 5507 5501 5495 5489 5484 5479 5474 5469 5465 5460 5456 5453 5450 5447 5445 5443 5441 5440 5439 5440 5441 5441 5441 5443 5448 5451 5450 5451 5455 5458 5462 5465 5469 5474 5481
5509 5502 5496 5490 5484 5478 5472 5467 5462 5458 5453 5449 5445 5441 5438 5435 5433 5431 5429 5428 5427 5428 5429 5430 5430 5430 5431 5435 5441 5445 5446 5448 5451 5455 5460 5465 5469 5475
5491 5485 5479 5473 5467 5462 5457 5452 5447 5442 5438 5434 5431 5428 5425 5423 5421 5419 5418 5417 5417 5417 5419 5421 5423 5424 5426 5429 5432 5439 5443 5445 5446 5449 5454 5459 5464 5470
5475 5470 5464 5458 5453 5448 5443 5438 5433 5429 5425 5421 5419 5416 5414 5412 5410 5409 5408 5408 5408 5409 5411 5414 5417 5419 5420 5422 5426 5431 5436 5441 5445 5448 5451 5453 5455 5461
5461 5455 5450 5444 5439 5435 5430 5425 5421 5417 5413 5410 5408 5406 5404 5402 5401 5400 5400 5400 5401 5403 5405 5408 5411 5413 5415 5418 5421 5426 5431 5436 5440 5444 5448 5451 5454 5457